Location: Unspecified
(43.4354°N, 0.0000°E)
Time: 02:46:30
(UTC+00:00)

Vanguard 2 Rocket - Pass Details

Date: 21 June 2019
Orbit: 554 x 3326 km, 32.9° (Epoch: 16 July)

Event Time Altitude Azimuth Distance (km) Brightness Sun altitude
Rises 05:06:26 0° 275° (W) 6,611 10.8 6.6°
Reaches altitude 10° 05:12:20 10° 261° (W) 5,930 10.5 7.5°
Maximum altitude 05:24:17 21° 222° (SW) 5,391 10.4 9.5°
Drops below altitude 10° 05:36:44 10° 183° (S) 6,119 10.9 11.6°
Sets 05:43:09 0° 169° (SSE) 6,865 11.3 12.7°
